Lexington Weather

Lexington, Massachusetts, USA

72°F
9/22/2021 2:27pm 
  • Lexington Conditions: Light rain, Mist, Overcast
  • Temperature: 71.8°F / 22.1°CColder 3.0°F than last hour.
  • Dew Point: 69.1°FIncreased 0.9°Fsince last hour.
  • Relative Humidity: 91%Increased 11.0% since last hour.
  • Wind: Wind from W W 4 mph, 10-min avg: 4 mph, gust: 13 mph
  • Barometer: 30.08 inFalling 0.02  inHg/hr Falling Slowly
  • Visibility: 2 miles
  • Rain Today: 0.00 in
  •   

Regional Weather Roundup
for Boston / Norton, MA

        
000
ASUS41 KBOX 192004
RWRBOX

REGIONAL WEATHER ROUNDUP
NATIONAL WEATHER SERVICE BOSTON/NORTON MA
400 PM EDT SUN SEP 19 2021

NOTE:  "FAIR" INDICATES FEW OR NO CLOUDS BELOW 12,000 FEET WITH NO 
SIGNIFICANT WEATHER AND/OR OBSTRUCTIONS TO VISIBILITY.

MAZALL-192100-
EASTERN MASSACHUSETTS
  
CITY           SKY/WX    TMP DP  RH WIND       PRES   REMARKS
BOSTON         MOSUNNY   71  51  49 SE8       30.13F                  
BEVERLY        SUNNY     73  55  53 W3        30.12F                  
LAWRENCE       SUNNY     73  50  44 N6        30.15F                  
BEDFORD        MOSUNNY   73  53  49 N7        30.12F                  
BLUE HILL      NOT AVBL                                               
NORWOOD        SUNNY     72  50  45 CALM      30.13F                  
MARSHFIELD     SUNNY     70  48  46 NE8G14    30.14S                  
PLYMOUTH       SUNNY     69  46  43 NE13      30.14F                  
TAUNTON        SUNNY     71  48  43 VRB6      30.13F                  
NEW BEDFORD    SUNNY     72  48  42 NE14G21   30.13F                  
$$

MAZALL-192100-
CAPE COD AND THE ISLANDS
  
CITY           SKY/WX    TMP DP  RH WIND       PRES   REMARKS
FALMOUTH       NOT AVBL                                               
HYANNIS        SUNNY     68  54  60 N14G22    30.12R                  
CHATHAM        SUNNY     68  52  56 NE8G16    30.13S                  
PROVINCETOWN   SUNNY     67  52  58 N14       30.14F                  
NANTUCKET      SUNNY     70  54  56 N18       30.12S                  
MARTHAS VNYRD  SUNNY     70  47  43 N17       30.12F                  
$$
 
MAZALL-192100-
CENTRAL AND WESTERN MASSACHUSETTS
  
CITY           SKY/WX    TMP DP  RH WIND       PRES   REMARKS
WORCESTER      SUNNY     71  51  49 VRB3      30.16F                  
FITCHBURG      SUNNY     74  46  36 SE5       30.14F                  
ORANGE         SUNNY     74  48  39 W7        30.16S                  
SPRINGFIELD    MOSUNNY   74  48  39 N7        30.14S                  
WESTFIELD      SUNNY     75  46  35 N7        30.15F                  
NORTH ADAMS    SUNNY     72  52  49 VRB6      30.17F                  
PITTSFIELD     SUNNY     70  52  52 W8        30.17S                  
$$
 
RIZALL-192100-
RHODE ISLAND
  
CITY           SKY/WX    TMP DP  RH WIND       PRES   REMARKS
PROVIDENCE     MOSUNNY   75  51  43 N5        30.14F                  
NEWPORT        SUNNY     71  47  42 NE12      30.14F                  
BLOCK ISLAND   SUNNY     70  52  52 NE9       30.15S                  
SMITHFIELD     SUNNY     71  52  50 N6        30.15F                  
WESTERLY       MOSUNNY   72  53  51 VRB5      30.13F                  
$$
 
CTZALL-192100-
CONNECTICUT
  
CITY           SKY/WX    TMP DP  RH WIND       PRES   REMARKS
BRADLEY INTL   MOSUNNY   74  45  35 N7        30.15F                  
HARTFORD       SUNNY     75  48  38 CALM      30.14F                  
BRIDGEPORT     SUNNY     77  49  37 CALM      30.14F                  
DANBURY        SUNNY     76  49  38 VRB7      30.17S                  
GROTON         MOSUNNY   72  59  63 S9        30.13F                  
NEW HAVEN      SUNNY     76  48  37 NW6       30.15S                  
CHESTER        FAIR      77  54  44 VRB3      30.15S                  
MERIDEN        SUNNY     75  46  35 N7        30.15F                  
WILLIMANTIC    SUNNY     74  49  41 NW6       30.14F                  
OXFORD         SUNNY     72  50  45 NE7       30.17F                  
$$

MEZ002-015-021-024-NHZ003-005-008-011-012-014-VTZ005-008-192100-
NORTHERN NEW ENGLAND
  
CITY           SKY/WX    TMP DP  RH WIND       PRES   REMARKS
PORTLAND ME    SUNNY     71  49  45 N8        30.13S                  
BANGOR ME      MOSUNNY   70  46  42 NE13      30.12R                  
CONCORD NH     SUNNY     74  48  39 CALM      30.13S                  
MANCHESTER NH  SUNNY     75  45  34 W5        30.11F                  
NASHUA NH      SUNNY     73  50  44 N6        30.14F                  
PORTSMOUTH NH  MOSUNNY   72  50  46 SE5       30.13F                  
JAFFREY NH     SUNNY     73  51  46 NW6       30.16S                  
KEENE NH       SUNNY     72  47  40 W6        30.15F                  
BURLINGTON VT  MOSUNNY   68  45  43 VRB6      30.20F                  
MT. WASHINGTON MOSUNNY   45  32  61 NW8         N/A                   
$$

NYZ052-076-192100-
EASTERN NEW YORK
  
CITY           SKY/WX    TMP DP  RH WIND       PRES   REMARKS
ALBANY         MOSUNNY   68  49  50 NW6       30.19F                  
NEW YORK CITY  MOSUNNY   77  49  37 CALM      30.15S                  
$$
 
ANZALL-192100-
MARINE OBSERVATIONS
  
STATION/POSITION TIME  TEMP    WIND        PRES    VSBY  WAVE
                       AIR SEA DIR/SP/G                  HT/PER
                 (UTC) (F)     (DEG/KT/KT) (MB)    (MI)  (FT/S)
BOSTON BUOY      1940      66   30/  8/  8 1021.0F
BUZZARDS BAY     1900           10/ 15/ 17 1021.5R
NANTUCKET SOUND  1940   67 72  360/ 17/ 21 1020.1S
MASS BAY-STELLWA 1904   65      30/ 10/ 12 1020.2F  1 7/8  5/ 6
ISLE OF SHOALS   1900   64     110/  5/  6 1020.0F
S OF BLOCK IS    1926      71                N/A           4/10
$$

......................KEY.........................
  SKY/WX - SKY CONDITION/PRESENT WEATHER
  TMP    - TEMPERATURE IN FAHRENHEIT
  DWPT   - DEWPOINT IN FAHRENHEIT
  RH     - RELATIVE HUMIDITY IN PERCENT
  WIND   - DIRECTION AND SPEED IN MPH
  PRES   - MEAN SEA LEVEL PRESSURE IN INCHES OF HG
  WCI    - WIND CHILL INDEX
  VSB    - VISIBILITY IN MILES
  HX     - HEAT INDEX
  TC     - TEMPERATURE IN CELSIUS
  VRB    - VARIABLE WIND DIRECTION
  N/A    - NOT AVAILABLE
  
      

Other recent Regional Weather Roundups

Wed Sep 22, 2:04pm

Wed Sep 22, 1:04pm

Wed Sep 22, 12:05pm

Wed Sep 22, 11:04am

Wed Sep 22, 10:04am

Wed Sep 22, 9:04am

Wed Sep 22, 8:04am

Wed Sep 22, 7:04am

Wed Sep 22, 6:04am

Wed Sep 22, 5:04am

Wed Sep 22, 4:04am

Wed Sep 22, 3:04am

Wed Sep 22, 2:04am

Wed Sep 22, 1:04am

Wed Sep 22, 12:04am

Tue Sep 21, 11:04pm

Tue Sep 21, 10:04pm

Tue Sep 21, 9:04pm

Tue Sep 21, 8:04pm

Tue Sep 21, 7:04pm

Tue Sep 21, 6:04pm

Tue Sep 21, 5:04pm

Tue Sep 21, 4:04pm

Tue Sep 21, 3:04pm

Tue Sep 21, 2:04pm

Tue Sep 21, 1:04pm

Tue Sep 21, 12:04pm

Tue Sep 21, 11:04am

Tue Sep 21, 10:04am

Tue Sep 21, 9:04am

Tue Sep 21, 8:04am

Tue Sep 21, 7:04am

Tue Sep 21, 6:04am

Tue Sep 21, 5:04am

Tue Sep 21, 4:04am

Tue Sep 21, 3:04am

Tue Sep 21, 2:04am

Tue Sep 21, 1:04am

Tue Sep 21, 12:04am

Mon Sep 20, 11:04pm

Mon Sep 20, 10:04pm

Mon Sep 20, 9:04pm

Mon Sep 20, 8:04pm

Mon Sep 20, 7:04pm

Mon Sep 20, 6:04pm

Mon Sep 20, 5:04pm

Mon Sep 20, 4:04pm

Mon Sep 20, 3:04pm

Mon Sep 20, 2:04pm

Mon Sep 20, 1:04pm

Mon Sep 20, 12:04pm

Mon Sep 20, 11:04am

Mon Sep 20, 10:04am

Mon Sep 20, 9:04am

Mon Sep 20, 7:04am

Mon Sep 20, 6:04am

Mon Sep 20, 5:04am

Mon Sep 20, 4:04am

Mon Sep 20, 3:04am

Mon Sep 20, 2:04am

Mon Sep 20, 1:04am

Mon Sep 20, 12:04am

Sun Sep 19, 11:04pm

Sun Sep 19, 10:04pm

Sun Sep 19, 9:04pm

Sun Sep 19, 8:04pm

Sun Sep 19, 7:04pm

Sun Sep 19, 6:04pm

Sun Sep 19, 5:04pm

Sun Sep 19, 3:04pm

Sun Sep 19, 2:05pm

Sun Sep 19, 1:04pm

Sun Sep 19, 12:04pm

Sun Sep 19, 11:04am

Sun Sep 19, 10:05am

Sun Sep 19, 9:04am

Sun Sep 19, 8:04am

Sun Sep 19, 7:04am

Sun Sep 19, 6:04am

Sun Sep 19, 5:04am

Sun Sep 19, 4:04am

Sun Sep 19, 3:04am

Sun Sep 19, 2:04am

Sun Sep 19, 1:04am

Sun Sep 19, 12:04am

Sat Sep 18, 11:05pm

Sat Sep 18, 10:04pm

Sat Sep 18, 9:04pm

Sat Sep 18, 8:04pm

Sat Sep 18, 7:04pm

Sat Sep 18, 6:04pm

Sat Sep 18, 5:04pm

Sat Sep 18, 4:04pm

Sat Sep 18, 3:04pm

Sat Sep 18, 2:04pm

Sat Sep 18, 1:04pm

Sat Sep 18, 12:04pm

Sat Sep 18, 11:04am

Sat Sep 18, 10:04am

Sat Sep 18, 9:04am

Sat Sep 18, 8:04am

Sat Sep 18, 7:04am

Sat Sep 18, 6:04am

Sat Sep 18, 5:04am

Sat Sep 18, 4:04am

Sat Sep 18, 3:04am

Sat Sep 18, 2:04am

Sat Sep 18, 1:04am

Sat Sep 18, 12:04am

Fri Sep 17, 11:04pm

Fri Sep 17, 10:04pm

Fri Sep 17, 9:04pm

Fri Sep 17, 8:04pm

Fri Sep 17, 7:04pm

Fri Sep 17, 6:04pm

Fri Sep 17, 5:04pm

Fri Sep 17, 4:04pm

Fri Sep 17, 3:04pm

Fri Sep 17, 2:04pm

Fri Sep 17, 1:04pm

Fri Sep 17, 12:05pm

Fri Sep 17, 11:04am

Fri Sep 17, 10:04am

Fri Sep 17, 9:04am

Fri Sep 17, 8:04am

Fri Sep 17, 7:04am

Fri Sep 17, 6:04am

Fri Sep 17, 5:04am

Fri Sep 17, 4:04am

Fri Sep 17, 3:04am

Fri Sep 17, 2:04am

Fri Sep 17, 1:04am

Fri Sep 17, 12:04am

Thu Sep 16, 11:04pm

Thu Sep 16, 10:04pm

Thu Sep 16, 9:04pm

Thu Sep 16, 8:04pm

Thu Sep 16, 7:04pm

Thu Sep 16, 6:04pm

Thu Sep 16, 5:04pm

Thu Sep 16, 4:04pm

Thu Sep 16, 3:04pm

Thu Sep 16, 2:04pm

Thu Sep 16, 1:05pm

Thu Sep 16, 12:04pm

Thu Sep 16, 11:05am

Thu Sep 16, 10:05am

Thu Sep 16, 9:04am

Thu Sep 16, 8:04am

Thu Sep 16, 7:04am

Thu Sep 16, 6:04am

Thu Sep 16, 5:04am

Thu Sep 16, 4:04am

Thu Sep 16, 3:04am

Thu Sep 16, 2:04am

Thu Sep 16, 1:04am

Thu Sep 16, 12:04am

Wed Sep 15, 11:04pm

Wed Sep 15, 10:04pm

Wed Sep 15, 9:04pm

Wed Sep 15, 8:04pm

Wed Sep 15, 7:04pm

Wed Sep 15, 6:04pm

Wed Sep 15, 5:05pm

Wed Sep 15, 4:04pm

Wed Sep 15, 3:04pm

Meta data:

ID: 0893cc85-2a72-40f5-a3c2-bd03a52dbb79
Link: https://api.weather.gov/products/0893cc85-2a72-40f5-a3c2-bd03a52dbb79